Showing default

SES 12, 43488

Orbit data source: Space-Track

SES 12, 43488 is a payload satellite owned by SES (LU) in GEO that was launched on Mon, 04 Jun 2018 UTC via an FALCON 9 launch vehicle from the Air Force Eastern Test Range (AFETR). Payloads include a variety of satellites, spacecraft, and rockets equipped with specific instruments for various scientific and technological missions. These include communications satellites like Starlink; space stations such as the ISS; scientific satellites like the Hubble; Earth observation satellites from companies like Planet Labs, Umbra, and HawkEye 360; GPS; miniature CubeSats for education and research; and military/defense satellites.

Not visible in the next 10 days
SES 12 details
Identifier
43488, 2018-049A
Orbit
GEO
Last TLE update7 hours ago
Origin
Flag of LUSES (LU / SES)
ManufacturerAirbus/Toulouse
MissionOperational Commercial Communications
Bus & MotorEUROSTAR 3000E, EOR
Mass5,384 kg wet, ~3,000 kg dry
Launch date (UTC)
2018-06-04 (7 years ago)
Launch vehicle
FALCON 9
Launch site
Air Force Eastern Test Range (AFETR)
Object type
Payload
Rocket body
Debris
Shape & HBRBox + 2 Pan, 39.3 m
Radar Cross Section49.877 m², Large (>1 m²)

Expand to show TLE details & history

TLE from 7 hours ago
0 SES 12
1 43488U 18049A   24361.54830812 -.00000241  00000-0  00000-0 0  9994
2 43488   0.0229  43.5837 0002487 229.8815 114.4586  1.00271661 24029
Epoch: 2024-12-26T13:09Z
Definitive object data (Epoch: 2024-12-26T13:09:33.821Z)
Latitude0.00124°
Longitude95.02497°
Altitude35,790.489 km
Speed3.074 km/s
True Right ascension01h 51m 46s
True Declination0° 00' 04"
Sunlit
Object was in daylight at TLE epoch
Visualization TLE readout
Latitude0.03675°
Longitude-154.69871°
Altitude35,793.622 km
Speed3.074 km/s
Apparent Right ascension09h 04m 37s
Apparent Declination-4° 56' 18"
Sunlit
Object is in daylight
Visualization observer readout
Local Sidereal Time19:52:29
Azimuth330.348° NNW
Elevation-51.428°
Doppler factor1
Orbital elements
Apogee altitude35,798.187 km
Perigee altitude35,777.213 km
Semi-major axis42,165.837 km
Eccentricity0.0002487
Inclination0.0229°
RAAN43.5837°
Arg. of periapsis229.8815°
True anomaly114.48454°
Mean anomaly114.4586°
Eccentric anomaly114.47157°
Mean motion0.25067 °/min
BSTARUnknown
Orbital period1436.15 mins
Loading historical data...
43488 neighbors
Authenticating...
Loading maneuver chart data...
Loading historical data...
Loading historical data...
Loading historical data...
Loading historical data...
Loading historical data...
Loading historical data...
Loading historical data...
Other satellites on launch #49 in the year 2018 (2018-06-04 UTC)

SES 12 Visibility forecast

Observer location: undefined°, undefined

SES 12 is not visible in the next 10 days
Span
Click to sort rows by Start time (UTC) header in descending order
Start Az.
Max El. time (UTC)
Max El. Az.
Max El.
End time (UTC)
End Az.
|